| time (UTC) | temp F | wind direction | speed MPH | gust MPH | rain 1hr in | rain 24hr in | rain mn in | humidity % | barometer mb |
| 20260831021044 | 72 | 153 | 3.0 | 8.0 | 0.00 | 0.00 | 0.00 | 62 | 1028.8 |
| 20260831020542 | 72 | 203 | 4.0 | 7.0 | 0.00 | 0.00 | 0.00 | 62 | 1028.8 |
| 20260831020110 | 72 | 175 | 1.0 | 7.0 | 0.00 | 0.00 | 0.00 | 63 | 1028.7 |
| 20260831015543 | 72 | 163 | 3.0 | 8.0 | 0.00 | 0.00 | 0.00 | 62 | 1028.9 |
| 20260831015042 | 71 | 189 | 2.0 | 8.0 | 0.00 | 0.00 | 0.00 | 63 | 1029.0 |
| 20260831014555 | 71 | 150 | 5.0 | 8.0 | 0.00 | 0.00 | 0.00 | 62 | 1029.0 |
| 20260831014043 | 71 | 236 | 3.0 | 7.0 | 0.00 | 0.00 | 0.00 | 63 | 1029.0 |
| 20260831013543 | 70 | 0 | 1.0 | 7.0 | 0.00 | 0.00 | 0.00 | 63 | 1029.1 |
| 20260831013106 | 71 | 191 | 2.0 | 8.0 | 0.00 | 0.00 | 0.00 | 62 | 1029.2 |
| 20260831012544 | 71 | 203 | 1.0 | 9.0 | 0.00 | 0.00 | 0.00 | 62 | 1029.2 |
| 20260831012043 | 71 | 188 | 4.0 | 9.0 | 0.00 | 0.00 | 0.00 | 61 | 1029.4 |
| 20260831011559 | 72 | 162 | 2.0 | 6.0 | 0.00 | 0.00 | 0.00 | 62 | 1029.3 |
| 20260831011042 | 71 | 104 | 3.0 | 6.0 | 0.00 | 0.00 | 0.00 | 62 | 1029.3 |
| 20260831010543 | 71 | 186 | 1.0 | 7.0 | 0.00 | 0.00 | 0.00 | 63 | 1029.4 |
| 20260831010105 | 70 | 238 | 2.0 | 7.0 | 0.00 | 0.00 | 0.00 | 64 | 1029.4 |
| 20260831005543 | 70 | 89 | 1.0 | 7.0 | 0.00 | 0.00 | 0.00 | 65 | 1029.5 |
| 20260831005043 | 71 | 193 | 3.0 | 7.0 | 0.00 | 0.00 | 0.00 | 63 | 1029.7 |
| 20260831004603 | 71 | 150 | 4.0 | 7.0 | 0.00 | 0.00 | 0.00 | 64 | 1029.7 |
| 20260831004043 | 71 | 193 | 2.0 | 4.0 | 0.00 | 0.00 | 0.00 | 64 | 1029.6 |
| 20260831003545 | 70 | 207 | 0.0 | 3.0 | 0.00 | 0.00 | 0.00 | 65 | 1029.8 |
| 20260831003103 | 71 | 77 | 1.0 | 5.0 | 0.00 | 0.00 | 0.00 | 64 | 1029.8 |
| 20260831002543 | 70 | 41 | 2.0 | 5.0 | 0.00 | 0.00 | 0.00 | 64 | 1029.8 |
| 20260831002045 | 70 | 166 | 2.0 | 5.0 | 0.00 | 0.00 | 0.00 | 66 | 1030.0 |
| 20260831001558 | 70 | 93 | 2.0 | 5.0 | 0.00 | 0.00 | 0.00 | 65 | 1030.0 |
| 20260831001045 | 71 | 179 | 1.0 | 4.0 | 0.00 | 0.00 | 0.00 | 66 | 1030.0 |
| 20260831000545 | 70 | 0 | 1.0 | 4.0 | 0.00 | 0.00 | 0.00 | 67 | 1030.0 |
| 20260831000106 | 69 | 34 | 1.0 | 5.0 | 0.00 | 0.00 | 0.00 | 68 | 1030.1 |
| 20260830235542 | 69 | 207 | 2.0 | 5.0 | 0.00 | 0.00 | 0.00 | 68 | 1030.1 |
| 20260830235043 | 69 | 220 | 0.0 | 6.0 | 0.00 | 0.00 | 0.00 | 69 | 1030.1 |
| 20260830234601 | 68 | 158 | 1.0 | 6.0 | 0.00 | 0.00 | 0.00 | 70 | 1030.1 |
| 20260830234043 | 68 | 198 | 3.0 | 6.0 | 0.00 | 0.00 | 0.00 | 70 | 1030.1 |
| 20260830233543 | 67 | 183 | 3.0 | 5.0 | 0.00 | 0.00 | 0.00 | 71 | 1030.2 |
| 20260830233100 | 67 | 162 | 2.0 | 5.0 | 0.00 | 0.00 | 0.00 | 72 | 1030.2 |
| 20260830232546 | 67 | 192 | 1.0 | 5.0 | 0.00 | 0.00 | 0.00 | 72 | 1030.2 |
| 20260830232045 | 66 | 0 | 2.0 | 5.0 | 0.00 | 0.00 | 0.00 | 73 | 1030.2 |
| 20260830231558 | 66 | 0 | 1.0 | 5.0 | 0.00 | 0.00 | 0.00 | 74 | 1030.3 |
| 20260830231044 | 66 | 219 | 2.0 | 5.0 | 0.00 | 0.00 | 0.00 | 74 | 1030.3 |
| 20260830230543 | 66 | 191 | 1.0 | 7.0 | 0.00 | 0.00 | 0.00 | 75 | 1030.2 |
| 20260830225543 | 65 | 181 | 3.0 | 7.0 | 0.00 | 0.00 | 0.00 | 74 | 1030.3 |
| 20260830225047 | 66 | 210 | 1.0 | 4.0 | 0.00 | 0.00 | 0.00 | 75 | 1030.2 |
| 20260830224600 | 66 | 235 | 2.0 | 4.0 | 0.00 | 0.00 | 0.00 | 75 | 1030.2 |
| 20260830224046 | 66 | 0 | 0.0 | 2.0 | 0.00 | 0.00 | 0.00 | 77 | 1030.2 |
| 20260830223546 | 65 | 0 | 0.0 | 2.0 | 0.00 | 0.00 | 0.00 | 79 | 1030.0 |
| 20260830223059 | 64 | 0 | 0.0 | 3.0 | 0.00 | 0.00 | 0.00 | 79 | 1030.1 |
| 20260830222543 | 63 | 0 | 1.0 | 3.0 | 0.00 | 0.00 | 0.00 | 78 | 1030.0 |
| 20260830222045 | 63 | 0 | 0.0 | 3.0 | 0.00 | 0.00 | 0.00 | 79 | 1030.2 |
| 20260830221557 | 63 | 0 | 0.0 | 3.0 | 0.00 | 0.00 | 0.00 | 80 | 1030.0 |
| 20260830221046 | 62 | 0 | 0.0 | 3.0 | 0.00 | 0.00 | 0.00 | 83 | 1030.1 |
| 20260830220546 | 62 | 255 | 0.0 | 3.0 | 0.00 | 0.00 | 0.00 | 82 | 1030.2 |
| 20260830215546 | 61 | 259 | 2.0 | 5.0 | 0.00 | 0.00 | 0.00 | 83 | 1030.1 |
| 20260830215044 | 62 | 245 | 1.0 | 3.0 | 0.00 | 0.00 | 0.00 | 82 | 1030.1 |
| 20260830214601 | 62 | 226 | 0.0 | 1.0 | 0.00 | 0.00 | 0.00 | 84 | 1030.1 |
| 20260830214044 | 62 | 291 | 0.0 | 1.0 | 0.00 | 0.00 | 0.00 | 84 | 1029.9 |
| 20260830213547 | 62 | 0 | 0.0 | 0.0 | 0.00 | 0.00 | 0.00 | 87 | 1030.0 |
| 20260830213056 | 61 | 0 | 0.0 | 0.0 | 0.00 | 0.00 | 0.00 | 88 | 1029.9 |
| 20260830212547 | 60 | 0 | 0.0 | 0.0 | 0.00 | 0.00 | 0.00 | 93 | 1030.0 |
| 20260830212044 | 59 | 0 | 0.0 | 0.0 | 0.00 | 0.00 | 0.00 | 94 | 1030.0 |
| 20260830211620 | 58 | 0 | 0.0 | 0.0 | 0.00 | 0.00 | 0.00 | 95 | 1029.9 |
| 20260830211047 | 57 | 0 | 0.0 | 1.0 | 0.00 | 0.00 | 0.00 | 95 | 1029.8 |
| 20260830210547 | 56 | 0 | 0.0 | 1.0 | 0.00 | 0.00 | 0.00 | 95 | 1029.9 |
| 20260830210054 | 55 | 0 | 0.0 | 1.0 | 0.00 | 0.00 | 0.00 | 94 | 1029.8 |
| 20260830205543 | 54 | 0 | 0.0 | 1.0 | 0.00 | 0.00 | 0.00 | 95 | 1029.8 |
| 20260830205043 | 54 | 0 | 0.0 | 1.0 | 0.00 | 0.00 | 0.00 | 95 | 1029.9 |
| 20260830204559 | 53 | 316 | 0.0 | 1.0 | 0.00 | 0.00 | 0.00 | 95 | 1029.8 |
| 20260830204043 | 53 | 0 | 0.0 | 1.0 | 0.00 | 0.00 | 0.00 | 95 | 1029.6 |
| 20260830203543 | 53 | 316 | 0.0 | 1.0 | 0.00 | 0.00 | 0.00 | 95 | 1029.6 |
| 20260830203102 | 53 | 0 | 0.0 | 1.0 | 0.00 | 0.00 | 0.00 | 95 | 1029.5 |
| 20260830202543 | 52 | 0 | 0.0 | 1.0 | 0.00 | 0.00 | 0.00 | 95 | 1029.6 |
| 20260830202043 | 52 | 0 | 0.0 | 1.0 | 0.00 | 0.00 | 0.00 | 95 | 1029.5 |
| 20260830201607 | 52 | 316 | 0.0 | 1.0 | 0.00 | 0.00 | 0.00 | 94 | 1029.5 |
| 20260830201045 | 53 | 316 | 0.0 | 1.0 | 0.00 | 0.00 | 0.00 | 95 | 1029.4 |
| 20260830200545 | 52 | 316 | 0.0 | 1.0 | 0.00 | 0.00 | 0.00 | 95 | 1029.3 |
| 20260830200103 | 52 | 0 | 0.0 | 1.0 | 0.00 | 0.00 | 0.00 | 96 | 1029.3 |
| 20260830195546 | 52 | 316 | 0.0 | 1.0 | 0.00 | 0.00 | 0.00 | 95 | 1029.3 |
| 20260830195041 | 52 | 0 | 0.0 | 1.0 | 0.00 | 0.00 | 0.00 | 95 | 1029.2 |
| 20260830194556 | 52 | 317 | 0.0 | 1.0 | 0.00 | 0.00 | 0.00 | 96 | 1029.1 |
| 20260830194041 | 52 | 0 | 0.0 | 1.0 | 0.00 | 0.00 | 0.00 | 96 | 1029.1 |
| 20260830193545 | 51 | 6 | 0.0 | 1.0 | 0.00 | 0.00 | 0.00 | 96 | 1028.9 |
| 20260830193058 | 51 | 321 | 0.0 | 1.0 | 0.00 | 0.00 | 0.00 | 96 | 1029.0 |
| 20260830192540 | 51 | 309 | 1.0 | 1.0 | 0.00 | 0.00 | 0.00 | 96 | 1029.1 |
| 20260830192040 | 50 | 313 | 0.0 | 1.0 | 0.00 | 0.00 | 0.00 | 96 | 1029.0 |
| 20260830191603 | 51 | 311 | 0.0 | 1.0 | 0.00 | 0.00 | 0.00 | 96 | 1028.8 |
| 20260830191041 | 50 | 311 | 0.0 | 1.0 | 0.00 | 0.00 | 0.00 | 96 | 1028.9 |
| 20260830190541 | 50 | 314 | 0.0 | 1.0 | 0.00 | 0.00 | 0.00 | 96 | 1028.8 |
| 20260830185541 | 50 | 0 | 1.0 | 1.0 | 0.00 | 0.00 | 0.00 | 95 | 1028.9 |
| 20260830185042 | 50 | 314 | 1.0 | 1.0 | 0.00 | 0.00 | 0.00 | 95 | 1028.9 |
| 20260830184612 | 50 | 314 | 1.0 | 1.0 | 0.00 | 0.00 | 0.00 | 95 | 1028.8 |
| 20260830184044 | 50 | 0 | 0.0 | 1.0 | 0.00 | 0.00 | 0.00 | 96 | 1028.8 |
| 20260830183541 | 50 | 314 | 0.0 | 1.0 | 0.00 | 0.00 | 0.00 | 96 | 1028.7 |
| 20260830183056 | 50 | 314 | 0.0 | 1.0 | 0.00 | 0.00 | 0.00 | 95 | 1028.7 |
| 20260830182544 | 50 | 314 | 0.0 | 1.0 | 0.00 | 0.00 | 0.00 | 95 | 1028.8 |
| 20260830182046 | 50 | 314 | 1.0 | 1.0 | 0.00 | 0.00 | 0.00 | 95 | 1028.7 |
| 20260830181555 | 50 | 313 | 0.0 | 1.0 | 0.00 | 0.00 | 0.00 | 96 | 1028.6 |
| 20260830181042 | 50 | 314 | 0.0 | 1.0 | 0.00 | 0.00 | 0.00 | 96 | 1028.6 |
| 20260830180543 | 50 | 314 | 0.0 | 1.0 | 0.00 | 0.00 | 0.00 | 95 | 1028.6 |
| 20260830180109 | 50 | 314 | 1.0 | 1.0 | 0.00 | 0.00 | 0.00 | 95 | 1028.6 |
| 20260830175541 | 50 | 311 | 0.0 | 2.0 | 0.00 | 0.00 | 0.00 | 95 | 1028.7 |
| 20260830175041 | 50 | 311 | 1.0 | 2.0 | 0.00 | 0.00 | 0.00 | 95 | 1028.8 |
| 20260830174611 | 50 | 311 | 1.0 | 1.0 | 0.00 | 0.00 | 0.00 | 95 | 1028.7 |
| 20260830174043 | 50 | 313 | 1.0 | 1.0 | 0.00 | 0.00 | 0.00 | 95 | 1028.8 |
| 20260830173548 | 50 | 312 | 1.0 | 1.0 | 0.00 | 0.00 | 0.00 | 95 | 1028.7 |
| 20260830173129 | 50 | 307 | 1.0 | 1.0 | 0.00 | 0.00 | 0.00 | 95 | 1028.7 |
| 20260830172546 | 50 | 0 | 0.0 | 1.0 | 0.00 | 0.00 | 0.00 | 95 | 1028.8 |
| 20260830172041 | 50 | 314 | 1.0 | 1.0 | 0.00 | 0.00 | 0.00 | 95 | 1028.8 |
| 20260830171605 | 50 | 0 | 0.0 | 1.0 | 0.00 | 0.00 | 0.00 | 95 | 1028.8 |
| 20260830171041 | 50 | 310 | 0.0 | 2.0 | 0.00 | 0.00 | 0.00 | 94 | 1028.7 |
| 20260830170543 | 50 | 310 | 0.0 | 2.0 | 0.00 | 0.00 | 0.00 | 94 | 1028.8 |
| 20260830170109 | 51 | 310 | 1.0 | 2.0 | 0.00 | 0.00 | 0.00 | 94 | 1028.8 |
| 20260830165543 | 51 | 307 | 0.0 | 1.0 | 0.00 | 0.00 | 0.00 | 95 | 1028.9 |
| 20260830165043 | 51 | 323 | 0.0 | 3.0 | 0.00 | 0.00 | 0.00 | 94 | 1028.9 |
| 20260830164606 | 51 | 316 | 0.0 | 3.0 | 0.00 | 0.00 | 0.00 | 94 | 1028.9 |
| 20260830164043 | 51 | 257 | 1.0 | 3.0 | 0.00 | 0.00 | 0.00 | 95 | 1028.9 |
| 20260830163546 | 51 | 0 | 1.0 | 2.0 | 0.00 | 0.00 | 0.00 | 94 | 1029.1 |
| 20260830163100 | 51 | 273 | 0.0 | 0.0 | 0.00 | 0.00 | 0.00 | 94 | 1029.0 |
| 20260830162542 | 51 | 0 | 0.0 | 0.0 | 0.00 | 0.00 | 0.00 | 94 | 1029.1 |
| 20260830162045 | 51 | 0 | 0.0 | 0.0 | 0.00 | 0.00 | 0.00 | 94 | 1029.1 |
| 20260830161610 | 51 | 0 | 0.0 | 0.0 | 0.00 | 0.00 | 0.00 | 94 | 1029.1 |
| 20260830161045 | 52 | 0 | 0.0 | 0.0 | 0.00 | 0.00 | 0.00 | 94 | 1029.1 |
| 20260830160546 | 52 | 0 | 0.0 | 0.0 | 0.00 | 0.00 | 0.00 | 94 | 1029.0 |
| 20260830160107 | 52 | 0 | 0.0 | 0.0 | 0.00 | 0.00 | 0.00 | 94 | 1029.1 |
| 20260830155545 | 52 | 0 | 0.0 | 0.0 | 0.00 | 0.00 | 0.00 | 94 | 1029.3 |
| 20260830155045 | 52 | 0 | 0.0 | 0.0 | 0.00 | 0.00 | 0.00 | 95 | 1029.3 |
| 20260830154558 | 52 | 0 | 0.0 | 0.0 | 0.00 | 0.00 | 0.00 | 94 | 1029.3 |
| 20260830154045 | 52 | 0 | 0.0 | 0.0 | 0.00 | 0.00 | 0.00 | 95 | 1029.4 |
| 20260830153546 | 52 | 0 | 0.0 | 0.0 | 0.00 | 0.00 | 0.00 | 95 | 1029.4 |
| 20260830153105 | 52 | 0 | 0.0 | 0.0 | 0.00 | 0.00 | 0.00 | 95 | 1029.4 |
| 20260830152545 | 52 | 0 | 0.0 | 0.0 | 0.00 | 0.00 | 0.00 | 95 | 1029.5 |
| 20260830152042 | 52 | 0 | 0.0 | 0.0 | 0.00 | 0.00 | 0.00 | 95 | 1029.6 |
| 20260830151607 | 52 | 0 | 0.0 | 0.0 | 0.00 | 0.00 | 0.00 | 95 | 1029.4 |
| 20260830151045 | 52 | 0 | 0.0 | 0.0 | 0.00 | 0.00 | 0.00 | 94 | 1029.5 |
| 20260830150545 | 52 | 0 | 0.0 | 0.0 | 0.00 | 0.00 | 0.00 | 95 | 1029.5 |
| 20260830145543 | 52 | 0 | 0.0 | 0.0 | 0.00 | 0.00 | 0.00 | 94 | 1029.5 |
| 20260830145049 | 52 | 0 | 0.0 | 0.0 | 0.00 | 0.00 | 0.00 | 94 | 1029.6 |
| 20260830144601 | 52 | 0 | 0.0 | 0.0 | 0.00 | 0.00 | 0.00 | 94 | 1029.6 |
| 20260830144045 | 52 | 0 | 0.0 | 0.0 | 0.00 | 0.00 | 0.00 | 94 | 1029.8 |
| 20260830143546 | 52 | 0 | 0.0 | 0.0 | 0.00 | 0.00 | 0.00 | 94 | 1029.8 |
| 20260830143107 | 52 | 0 | 0.0 | 0.0 | 0.00 | 0.00 | 0.00 | 94 | 1029.8 |
| 20260830142545 | 53 | 0 | 0.0 | 0.0 | 0.00 | 0.00 | 0.00 | 94 | 1029.9 |
| 20260830142045 | 53 | 0 | 0.0 | 0.0 | 0.00 | 0.00 | 0.00 | 94 | 1029.9 |
| 20260830141602 | 53 | 0 | 0.0 | 0.0 | 0.00 | 0.00 | 0.00 | 94 | 1029.9 |
| 20260830141042 | 53 | 0 | 0.0 | 0.0 | 0.00 | 0.00 | 0.00 | 94 | 1030.0 |
| 20260830140545 | 53 | 0 | 0.0 | 0.0 | 0.00 | 0.00 | 0.00 | 94 | 1029.9 |
| 20260830140107 | 53 | 0 | 0.0 | 0.0 | 0.00 | 0.00 | 0.00 | 93 | 1030.0 |
| 20260830135546 | 53 | 0 | 0.0 | 0.0 | 0.00 | 0.00 | 0.00 | 93 | 1030.0 |
| 20260830135046 | 53 | 0 | 0.0 | 0.0 | 0.00 | 0.00 | 0.00 | 93 | 1030.0 |
| 20260830134557 | 53 | 0 | 0.0 | 0.0 | 0.00 | 0.00 | 0.00 | 93 | 1029.9 |
| 20260830134056 | 53 | 0 | 0.0 | 0.0 | 0.00 | 0.00 | 0.00 | 93 | 1029.8 |
| 20260830133546 | 53 | 0 | 0.0 | 0.0 | 0.00 | 0.00 | 0.00 | 93 | 1029.8 |
| 20260830133104 | 53 | 0 | 0.0 | 0.0 | 0.00 | 0.00 | 0.00 | 92 | 1029.7 |
| 20260830132547 | 53 | 0 | 0.0 | 0.0 | 0.00 | 0.00 | 0.00 | 92 | 1029.6 |
| 20260830132046 | 53 | 0 | 0.0 | 1.0 | 0.00 | 0.00 | 0.00 | 92 | 1029.6 |
| 20260830131603 | 53 | 0 | 0.0 | 1.0 | 0.00 | 0.00 | 0.00 | 92 | 1029.6 |
| 20260830131045 | 54 | 309 | 1.0 | 1.0 | 0.00 | 0.00 | 0.00 | 92 | 1029.7 |
| 20260830130545 | 54 | 310 | 0.0 | 1.0 | 0.00 | 0.00 | 0.00 | 92 | 1029.7 |
| 20260830125544 | 54 | 0 | 0.0 | 1.0 | 0.00 | 0.00 | 0.00 | 91 | 1029.5 |
| 20260830125045 | 54 | 0 | 0.0 | 1.0 | 0.00 | 0.00 | 0.00 | 90 | 1029.7 |
| 20260830124556 | 54 | 314 | 0.0 | 1.0 | 0.00 | 0.00 | 0.00 | 90 | 1029.7 |
| 20260830124045 | 55 | 0 | 0.0 | 1.0 | 0.00 | 0.00 | 0.00 | 90 | 1029.6 |
| 20260830123545 | 55 | 314 | 0.0 | 1.0 | 0.00 | 0.00 | 0.00 | 90 | 1029.7 |
| 20260830123052 | 55 | 314 | 0.0 | 1.0 | 0.00 | 0.00 | 0.00 | 90 | 1029.8 |
| 20260830122545 | 55 | 0 | 0.0 | 1.0 | 0.00 | 0.00 | 0.00 | 89 | 1029.7 |
| 20260830122045 | 56 | 314 | 0.0 | 1.0 | 0.00 | 0.00 | 0.00 | 89 | 1029.7 |
| 20260830121557 | 56 | 0 | 0.0 | 1.0 | 0.00 | 0.00 | 0.00 | 88 | 1029.6 |
| 20260830121041 | 56 | 0 | 0.0 | 1.0 | 0.00 | 0.00 | 0.00 | 88 | 1029.7 |
| 20260830120545 | 56 | 0 | 0.0 | 1.0 | 0.00 | 0.00 | 0.00 | 87 | 1029.7 |
| 20260830120056 | 57 | 0 | 0.0 | 1.0 | 0.00 | 0.00 | 0.00 | 87 | 1029.8 |
| 20260830115546 | 57 | 0 | 0.0 | 1.0 | 0.00 | 0.00 | 0.00 | 86 | 1029.7 |
| 20260830115044 | 57 | 0 | 0.0 | 1.0 | 0.00 | 0.00 | 0.00 | 85 | 1029.7 |
| 20260830114559 | 58 | 0 | 0.0 | 1.0 | 0.00 | 0.00 | 0.00 | 83 | 1029.7 |
| 20260830114044 | 59 | 0 | 0.0 | 1.0 | 0.00 | 0.00 | 0.00 | 81 | 1029.6 |
| 20260830113545 | 61 | 0 | 0.0 | 1.0 | 0.00 | 0.00 | 0.00 | 81 | 1029.6 |
| 20260830113100 | 61 | 0 | 0.0 | 1.0 | 0.00 | 0.00 | 0.00 | 82 | 1029.5 |
| 20260830112545 | 61 | 0 | 0.0 | 1.0 | 0.00 | 0.00 | 0.00 | 82 | 1029.6 |
| 20260830112045 | 61 | 0 | 0.0 | 1.0 | 0.00 | 0.00 | 0.00 | 81 | 1029.5 |
| 20260830111557 | 61 | 0 | 0.0 | 3.0 | 0.00 | 0.00 | 0.00 | 81 | 1029.6 |
| 20260830111044 | 61 | 0 | 0.0 | 3.0 | 0.00 | 0.00 | 0.00 | 81 | 1029.5 |
| 20260830110544 | 61 | 94 | 0.0 | 3.0 | 0.00 | 0.00 | 0.00 | 81 | 1029.6 |
| 20260830110054 | 61 | 112 | 0.0 | 3.0 | 0.00 | 0.00 | 0.00 | 81 | 1029.5 |
| 20260830105546 | 61 | 0 | 0.0 | 3.0 | 0.00 | 0.00 | 0.00 | 81 | 1029.4 |
| 20260830105044 | 61 | 0 | 0.0 | 0.0 | 0.00 | 0.00 | 0.00 | 79 | 1029.4 |
| 20260830104552 | 61 | 0 | 0.0 | 2.0 | 0.00 | 0.00 | 0.00 | 79 | 1029.3 |
| 20260830104045 | 61 | 0 | 0.0 | 2.0 | 0.00 | 0.00 | 0.00 | 79 | 1029.3 |
| 20260830103544 | 61 | 0 | 0.0 | 2.0 | 0.00 | 0.00 | 0.00 | 79 | 1029.3 |
| 20260830103059 | 61 | 0 | 0.0 | 2.0 | 0.00 | 0.00 | 0.00 | 78 | 1029.3 |
| 20260830102543 | 61 | 0 | 0.0 | 2.0 | 0.00 | 0.00 | 0.00 | 78 | 1029.3 |
| 20260830102044 | 62 | 0 | 0.0 | 4.0 | 0.00 | 0.00 | 0.00 | 77 | 1029.3 |
| 20260830101559 | 62 | 0 | 0.0 | 4.0 | 0.00 | 0.00 | 0.00 | 76 | 1029.2 |
| 20260830101045 | 62 | 0 | 0.0 | 4.0 | 0.00 | 0.00 | 0.00 | 76 | 1029.3 |
| 20260830100545 | 63 | 0 | 0.0 | 4.0 | 0.00 | 0.00 | 0.00 | 76 | 1029.2 |
| 20260830100055 | 63 | 0 | 1.0 | 7.0 | 0.00 | 0.00 | 0.00 | 76 | 1029.2 |
| 20260830095545 | 63 | 96 | 0.0 | 7.0 | 0.00 | 0.00 | 0.00 | 76 | 1029.2 |
| 20260830095046 | 63 | 82 | 1.0 | 7.0 | 0.00 | 0.00 | 0.00 | 76 | 1029.1 |
| 20260830094558 | 63 | 131 | 1.0 | 5.0 | 0.00 | 0.00 | 0.00 | 76 | 1029.1 |
| 20260830094045 | 63 | 109 | 1.0 | 5.0 | 0.00 | 0.00 | 0.00 | 76 | 1029.0 |
| 20260830093549 | 63 | 112 | 1.0 | 4.0 | 0.00 | 0.00 | 0.00 | 76 | 1029.0 |
| 20260830093055 | 63 | 0 | 1.0 | 5.0 | 0.00 | 0.00 | 0.00 | 76 | 1028.9 |
| 20260830092544 | 63 | 33 | 2.0 | 5.0 | 0.00 | 0.00 | 0.00 | 76 | 1028.8 |
| 20260830092046 | 63 | 0 | 2.0 | 5.0 | 0.00 | 0.00 | 0.00 | 76 | 1028.8 |
| 20260830091556 | 63 | 103 | 2.0 | 6.0 | 0.00 | 0.00 | 0.00 | 76 | 1028.9 |
| 20260830091044 | 64 | 360 | 0.0 | 7.0 | 0.00 | 0.00 | 0.00 | 75 | 1028.7 |
| 20260830090547 | 64 | 99 | 3.0 | 7.0 | 0.00 | 0.00 | 0.00 | 76 | 1028.7 |
| 20260830090103 | 63 | 94 | 2.0 | 5.0 | 0.00 | 0.00 | 0.00 | 76 | 1028.6 |
| 20260830085544 | 63 | 83 | 1.0 | 4.0 | 0.00 | 0.00 | 0.00 | 75 | 1028.5 |
| 20260830085046 | 63 | 85 | 2.0 | 4.0 | 0.00 | 0.00 | 0.00 | 75 | 1028.5 |
| 20260830084557 | 64 | 0 | 0.0 | 5.0 | 0.00 | 0.00 | 0.00 | 74 | 1028.4 |
| 20260830084042 | 64 | 30 | 0.0 | 5.0 | 0.00 | 0.00 | 0.00 | 74 | 1028.4 |
| 20260830083545 | 64 | 0 | 2.0 | 5.0 | 0.00 | 0.00 | 0.00 | 74 | 1028.4 |
| 20260830083054 | 64 | 86 | 0.0 | 6.0 | 0.00 | 0.00 | 0.00 | 73 | 1028.3 |
| 20260830082545 | 64 | 111 | 2.0 | 7.0 | 0.00 | 0.00 | 0.00 | 73 | 1028.1 |
| 20260830082045 | 64 | 54 | 2.0 | 7.0 | 0.00 | 0.00 | 0.00 | 73 | 1028.1 |
| 20260830081558 | 64 | 114 | 0.0 | 8.0 | 0.00 | 0.00 | 0.00 | 73 | 1028.0 |
| 20260830081045 | 65 | 73 | 2.0 | 8.0 | 0.00 | 0.00 | 0.00 | 73 | 1028.1 |
| 20260830080546 | 64 | 108 | 2.0 | 6.0 | 0.00 | 0.00 | 0.00 | 73 | 1028.0 |
| 20260830075544 | 65 | 105 | 2.0 | 8.0 | 0.00 | 0.00 | 0.00 | 73 | 1027.8 |
| 20260830075045 | 65 | 71 | 2.0 | 8.0 | 0.00 | 0.00 | 0.00 | 73 | 1027.6 |
| 20260830074600 | 65 | 49 | 2.0 | 5.0 | 0.00 | 0.00 | 0.00 | 73 | 1027.7 |
| 20260830074043 | 65 | 107 | 1.0 | 7.0 | 0.00 | 0.00 | 0.00 | 73 | 1027.5 |
| 20260830073544 | 65 | 113 | 2.0 | 7.0 | 0.00 | 0.00 | 0.00 | 73 | 1027.4 |
| 20260830073054 | 66 | 79 | 2.0 | 6.0 | 0.00 | 0.00 | 0.00 | 74 | 1027.3 |
| 20260830072544 | 66 | 112 | 1.0 | 6.0 | 0.00 | 0.00 | 0.00 | 74 | 1027.3 |
| 20260830072044 | 66 | 84 | 3.0 | 6.0 | 0.00 | 0.00 | 0.00 | 73 | 1027.2 |
| 20260830071600 | 66 | 130 | 3.0 | 6.0 | 0.00 | 0.00 | 0.00 | 73 | 1027.2 |
| 20260830071044 | 66 | 66 | 2.0 | 8.0 | 0.00 | 0.00 | 0.00 | 73 | 1027.1 |
| 20260830070547 | 67 | 113 | 3.0 | 8.0 | 0.00 | 0.00 | 0.00 | 73 | 1027.0 |
| 20260830070059 | 67 | 132 | 3.0 | 7.0 | 0.00 | 0.00 | 0.00 | 72 | 1027.1 |
| 20260830065544 | 67 | 168 | 2.0 | 7.0 | 0.00 | 0.00 | 0.00 | 72 | 1027.0 |
| 20260830065047 | 67 | 80 | 1.0 | 10.0 | 0.00 | 0.00 | 0.00 | 72 | 1027.0 |
| 20260830064607 | 67 | 150 | 2.0 | 10.0 | 0.00 | 0.00 | 0.00 | 71 | 1026.9 |
| 20260830064044 | 68 | 160 | 2.0 | 10.0 | 0.00 | 0.00 | 0.00 | 71 | 1026.9 |
| 20260830063544 | 68 | 111 | 2.0 | 7.0 | 0.00 | 0.00 | 0.00 | 70 | 1026.8 |
| 20260830063054 | 68 | 88 | 1.0 | 8.0 | 0.00 | 0.00 | 0.00 | 70 | 1026.8 |
| 20260830062544 | 68 | 102 | 2.0 | 9.0 | 0.00 | 0.00 | 0.00 | 70 | 1026.8 |
| 20260830062044 | 69 | 127 | 2.0 | 9.0 | 0.00 | 0.00 | 0.00 | 70 | 1026.8 |
| 20260830061602 | 69 | 107 | 4.0 | 9.0 | 0.00 | 0.00 | 0.00 | 70 | 1026.7 |
| 20260830061044 | 69 | 129 | 3.0 | 8.0 | 0.00 | 0.00 | 0.00 | 70 | 1026.7 |
| 20260830060544 | 69 | 85 | 2.0 | 6.0 | 0.00 | 0.00 | 0.00 | 70 | 1026.7 |
| 20260830060107 | 69 | 107 | 1.0 | 7.0 | 0.00 | 0.00 | 0.00 | 70 | 1026.6 |
| 20260830055544 | 69 | 0 | 3.0 | 8.0 | 0.00 | 0.00 | 0.00 | 70 | 1026.6 |
| 20260830055044 | 70 | 50 | 1.0 | 8.0 | 0.00 | 0.00 | 0.00 | 70 | 1026.6 |
| 20260830054554 | 70 | 42 | 3.0 | 8.0 | 0.00 | 0.00 | 0.00 | 69 | 1026.6 |
| 20260830054043 | 70 | 63 | 2.0 | 8.0 | 0.00 | 0.00 | 0.00 | 68 | 1026.5 |
| 20260830053543 | 71 | 36 | 3.0 | 11.0 | 0.00 | 0.00 | 0.00 | 66 | 1026.4 |
| 20260830053055 | 71 | 172 | 2.0 | 11.0 | 0.00 | 0.00 | 0.00 | 66 | 1026.3 |
| 20260830052543 | 72 | 109 | 3.0 | 8.0 | 0.00 | 0.00 | 0.00 | 65 | 1026.4 |
| 20260830052043 | 72 | 299 | 2.0 | 6.0 | 0.00 | 0.00 | 0.00 | 65 | 1026.3 |
| 20260830051559 | 71 | 39 | 1.0 | 6.0 | 0.00 | 0.00 | 0.00 | 66 | 1026.4 |
| 20260830051044 | 71 | 84 | 2.0 | 6.0 | 0.00 | 0.00 | 0.00 | 66 | 1026.4 |
| 20260830050544 | 71 | 60 | 2.0 | 8.0 | 0.00 | 0.00 | 0.00 | 65 | 1026.4 |
| 20260830050100 | 72 | 356 | 0.0 | 8.0 | 0.00 | 0.00 | 0.00 | 65 | 1026.3 |
| 20260830045547 | 72 | 105 | 2.0 | 9.0 | 0.00 | 0.00 | 0.00 | 64 | 1026.3 |
| 20260830045043 | 72 | 115 | 1.0 | 9.0 | 0.00 | 0.00 | 0.00 | 66 | 1026.4 |
| 20260830044605 | 72 | 122 | 4.0 | 9.0 | 0.00 | 0.00 | 0.00 | 64 | 1026.4 |
| 20260830044044 | 71 | 192 | 0.0 | 6.0 | 0.00 | 0.00 | 0.00 | 66 | 1026.5 |
| 20260830043546 | 71 | 115 | 2.0 | 8.0 | 0.00 | 0.00 | 0.00 | 66 | 1026.4 |
| 20260830043056 | 72 | 131 | 2.0 | 8.0 | 0.00 | 0.00 | 0.00 | 65 | 1026.4 |
| 20260830042547 | 73 | 138 | 2.0 | 5.0 | 0.00 | 0.00 | 0.00 | 63 | 1026.3 |
| 20260830042045 | 73 | 185 | 2.0 | 7.0 | 0.00 | 0.00 | 0.00 | 65 | 1026.4 |
| 20260830041603 | 72 | 38 | 3.0 | 7.0 | 0.00 | 0.00 | 0.00 | 66 | 1026.4 |
| 20260830041044 | 72 | 113 | 3.0 | 9.0 | 0.00 | 0.00 | 0.00 | 65 | 1026.6 |
| 20260830040546 | 72 | 111 | 4.0 | 9.0 | 0.00 | 0.00 | 0.00 | 65 | 1026.8 |
| 20260830040100 | 72 | 89 | 4.0 | 10.0 | 0.00 | 0.00 | 0.00 | 65 | 1026.7 |
| 20260830035544 | 72 | 109 | 4.0 | 10.0 | 0.00 | 0.00 | 0.00 | 66 | 1026.6 |
| 20260830035045 | 72 | 136 | 1.0 | 9.0 | 0.00 | 0.00 | 0.00 | 67 | 1026.7 |
| 20260830034555 | 71 | 13 | 4.0 | 9.0 | 0.00 | 0.00 | 0.00 | 66 | 1026.7 |
| 20260830034044 | 72 | 176 | 4.0 | 9.0 | 0.00 | 0.00 | 0.00 | 66 | 1026.7 |
| 20260830033544 | 72 | 203 | 3.0 | 11.0 | 0.00 | 0.00 | 0.00 | 63 | 1026.7 |
| 20260830033103 | 72 | 185 | 3.0 | 11.0 | 0.00 | 0.00 | 0.00 | 63 | 1026.7 |
| 20260830032544 | 72 | 139 | 4.0 | 8.0 | 0.00 | 0.00 | 0.00 | 62 | 1026.9 |
| 20260830032044 | 73 | 215 | 3.0 | 8.0 | 0.00 | 0.00 | 0.00 | 62 | 1026.9 |
| 20260830031559 | 73 | 176 | 2.0 | 6.0 | 0.00 | 0.00 | 0.00 | 63 | 1027.0 |
| 20260830031043 | 73 | 185 | 2.0 | 7.0 | 0.00 | 0.00 | 0.00 | 63 | 1027.1 |
| 20260830030546 | 72 | 175 | 3.0 | 7.0 | 0.00 | 0.00 | 0.00 | 63 | 1027.1 |
| 20260830030057 | 72 | 181 | 1.0 | 4.0 | 0.00 | 0.00 | 0.00 | 63 | 1027.3 |
| 20260830025545 | 71 | 0 | 0.0 | 5.0 | 0.00 | 0.00 | 0.00 | 65 | 1027.4 |
| 20260830025044 | 71 | 88 | 1.0 | 5.0 | 0.00 | 0.00 | 0.00 | 65 | 1027.4 |
| 20260830024604 | 70 | 0 | 0.0 | 8.0 | 0.00 | 0.00 | 0.00 | 66 | 1027.6 |
| 20260830024043 | 70 | 143 | 3.0 | 8.0 | 0.00 | 0.00 | 0.00 | 65 | 1027.7 |
| 20260830023547 | 71 | 124 | 2.0 | 7.0 | 0.00 | 0.00 | 0.00 | 64 | 1027.6 |
| 20260830023108 | 71 | 168 | 3.0 | 7.0 | 0.00 | 0.00 | 0.00 | 64 | 1027.6 |
| 20260830022544 | 71 | 109 | 0.0 | 7.0 | 0.00 | 0.00 | 0.00 | 65 | 1027.7 |
| 20260830022043 | 71 | 178 | 3.0 | 14.0 | 0.00 | 0.00 | 0.00 | 64 | 1027.8 |
| 20260830021555 | 72 | 134 | 1.0 | 14.0 | 0.00 | 0.00 | 0.00 | 65 | 1027.9 |